2020-03-08 00:08:14 r, 00.00m,0000563472Hz,0000000000c,0000000.000s, 018.6C,00002195
2020-03-08 00:18:16 r, 00.00m,0000563363Hz,0000000000c,0000000.000s, 018.3C,00002195
2020-03-08 00:28:15 r, 00.00m,0000563081Hz,0000000000c,0000000.000s, 017.4C,00002195
2020-03-08 00:38:14 r, 00.00m,0000562935Hz,0000000000c,0000000.000s, 016.1C,00002195
2020-03-08 00:48:14 r, 00.00m,0000562830Hz,0000000000c,0000000.000s, 015.4C,00002195
2020-03-08 00:58:15 r, 00.00m,0000562645Hz,0000000000c,0000000.000s, 014.8C,00002195
2020-03-08 01:08:14 r, 00.00m,0000562558Hz,0000000000c,0000000.000s, 013.8C,00002195
2020-03-08 01:18:14 r, 00.00m,0000562574Hz,0000000000c,0000000.000s, 013.5C,00002195
2020-03-08 01:28:15 r, 00.00m,0000562509Hz,0000000000c,0000000.000s, 013.2C,00002195
2020-03-08 01:38:14 r, 00.00m,0000562440Hz,0000000000c,0000000.000s, 012.8C,00002195
2020-03-08 01:48:15 r, 00.00m,0000562405Hz,0000000000c,0000000.000s, 012.5C,00002195
2020-03-08 01:58:14 r, 00.00m,0000562425Hz,0000000000c,0000000.000s, 012.5C,00002195
2020-03-08 03:08:14 r, 00.00m,0000562413Hz,0000000000c,0000000.000s, 012.2C,00002195
2020-03-08 03:18:15 r, 00.00m,0000562463Hz,0000000000c,0000000.000s, 012.5C,00002195
2020-03-08 03:28:17 r, 00.00m,0000562463Hz,0000000000c,0000000.000s, 012.5C,00002195
2020-03-08 03:38:14 r, 00.00m,0000562350Hz,0000000000c,0000000.000s, 011.9C,00002195
2020-03-08 03:48:17 r, 00.00m,0000552105Hz,0000000000c,0000000.000s, 011.6C,00002195
2020-03-08 03:58:14 r, 05.89m,0000393102Hz,0000000000c,0000000.000s, 011.2C,00002195
2020-03-08 04:08:14 r, 06.72m,0000182045Hz,0000000000c,0000000.000s, 011.2C,00002195
2020-03-08 04:18:17 r, 07.44m,0000094547Hz,0000000000c,0000000.000s, 010.9C,00002195
2020-03-08 04:28:15 r, 08.71m,0000029101Hz,0000000000c,0000000.000s, 010.6C,00002195
2020-03-08 04:38:17 r, 10.34m,0000006517Hz,0000000000c,0000000.000s, 010.6C,00002195
2020-03-08 04:48:14 r, 12.19m,0000001187Hz,0000000000c,0000000.000s, 010.6C,00002195
2020-03-08 04:58:15 r, 14.01m,0000000221Hz,0000000000c,0000000.000s, 010.3C,00002195
2020-03-08 05:08:14 r, 15.09m,0000000081Hz,0000005658c,0000000.012s, 010.3C,00002195
2020-03-08 05:18:16 r, 15.30m,0000000067Hz,0000006875c,0000000.015s, 010.3C,00002195
2020-03-08 05:28:14 r, 14.66m,0000000120Hz,0000003819c,0000000.008s, 009.9C,00002195
2020-03-08 05:38:14 r, 14.74m,0000000110Hz,0000004120c,0000000.009s, 009.6C,00002195
2020-03-08 05:48:17 r, 14.61m,0000000126Hz,0000003622c,0000000.008s, 009.6C,00002195
2020-03-08 05:58:15 r, 14.60m,0000000128Hz,0000000000c,0000000.000s, 009.6C,00002195
2020-03-08 06:08:14 r, 14.72m,0000000115Hz,0000004006c,0000000.009s, 009.3C,00002195
2020-03-08 06:18:14 r, 14.75m,0000000111Hz,0000004152c,0000000.009s, 009.0C,00002195
2020-03-08 06:28:15 r, 14.77m,0000000108Hz,0000004248c,0000000.009s, 009.0C,00002195
2020-03-08 06:38:14 r, 14.78m,0000000108Hz,0000004280c,0000000.009s, 009.0C,00002195
2020-03-08 06:48:15 r, 14.20m,0000000185Hz,0000000000c,0000000.000s, 009.0C,00002195
2020-03-08 06:58:16 r, 13.95m,0000000233Hz,0000000000c,0000000.000s, 008.7C,00002195
2020-03-08 07:08:14 r, 14.59m,0000000130Hz,0000000000c,0000000.000s, 008.7C,00002195
2020-03-08 07:18:14 r, 14.84m,0000000103Hz,0000004484c,0000000.010s, 008.7C,00002195
2020-03-08 07:28:17 r, 14.74m,0000000112Hz,0000004084c,0000000.009s, 008.3C,00002195
2020-03-08 07:38:14 r, 14.62m,0000000126Hz,0000003694c,0000000.008s, 008.0C,00002195
2020-03-08 07:48:14 r, 14.60m,0000000129Hz,0000000000c,0000000.000s, 007.7C,00002195
2020-03-08 07:58:14 r, 15.08m,0000000081Hz,0000005624c,0000000.012s, 007.7C,00002195
2020-03-08 08:08:14 r, 15.64m,0000000049Hz,0000009416c,0000000.020s, 007.4C,00002195
2020-03-08 08:18:17 r, 15.64m,0000000048Hz,0000009371c,0000000.020s, 007.4C,00002195
2020-03-08 08:28:14 r, 15.38m,0000000061Hz,0000007389c,0000000.016s, 007.0C,00002195
2020-03-08 08:38:14 r, 15.07m,0000000083Hz,0000005556c,0000000.012s, 007.0C,00002195
2020-03-08 08:48:14 r, 15.24m,0000000071Hz,0000006481c,0000000.014s, 007.0C,00002195
2020-03-08 08:58:15 r, 15.33m,0000000065Hz,0000007071c,0000000.015s, 007.0C,00002195
2020-03-08 09:08:14 r, 15.60m,0000000049Hz,0000009144c,0000000.020s, 007.0C,00002195
2020-03-08 09:18:15 r, 16.02m,0000000034Hz,0000013430c,0000000.029s, 006.7C,00002195
2020-03-08 09:28:16 r, 16.39m,0000000023Hz,0000018749c,0000000.041s, 006.4C,00002195
2020-03-08 09:38:14 r, 16.57m,0000000021Hz,0000022081c,0000000.048s, 006.1C,00002195
2020-03-08 09:48:14 r, 16.59m,0000000021Hz,0000022466c,0000000.049s, 005.8C,00002195
2020-03-08 09:58:14 r, 16.57m,0000000021Hz,0000022242c,0000000.048s, 005.4C,00002195
2020-03-08 10:08:14 r, 16.49m,0000000022Hz,0000020532c,0000000.045s, 005.1C,00002195
2020-03-08 10:18:14 r, 16.12m,0000000031Hz,0000014626c,0000000.032s, 005.1C,00002195
2020-03-08 10:28:15 r, 15.14m,0000000077Hz,0000005948c,0000000.013s, 004.8C,00002195
2020-03-08 10:38:14 r, 15.35m,0000000064Hz,0000007215c,0000000.016s, 005.1C,00002195
2020-03-08 10:48:14 r, 14.93m,0000000093Hz,0000004916c,0000000.011s, 004.8C,00002195
2020-03-08 10:58:14 r, 15.28m,0000000068Hz,0000006783c,0000000.015s, 005.1C,00002195
2020-03-08 11:08:14 r, 16.34m,0000000025Hz,0000017922c,0000000.039s, 004.8C,00002195
2020-03-08 11:18:14 r, 15.78m,0000000043Hz,0000010745c,0000000.023s, 004.8C,00002195
2020-03-08 11:28:14 r, 15.31m,0000000065Hz,0000006950c,0000000.015s, 004.5C,00002195
2020-03-08 11:38:14 r, 15.24m,0000000070Hz,0000006522c,0000000.014s, 004.5C,00002195
2020-03-08 11:48:14 r, 15.25m,0000000069Hz,0000006588c,0000000.014s, 004.5C,00002195
2020-03-08 11:58:17 r, 15.57m,0000000052Hz,0000008776c,0000000.019s, 004.5C,00002195
2020-03-08 12:08:14 r, 15.67m,0000000047Hz,0000009711c,0000000.021s, 004.5C,00002195
2020-03-08 12:18:14 r, 15.94m,0000000037Hz,0000012386c,0000000.027s, 004.1C,00002195
2020-03-08 12:28:17 r, 16.55m,0000000021Hz,0000021634c,0000000.047s, 004.1C,00002195
2020-03-08 12:38:15 r, 16.88m,0000000016Hz,0000029507c,0000000.064s, 004.1C,00002195
2020-03-08 12:48:14 r, 16.92m,0000000015Hz,0000030669c,0000000.067s, 003.8C,00002195
2020-03-08 12:58:15 r, 16.98m,0000000014Hz,0000032192c,0000000.070s, 003.5C,00002195
2020-03-08 13:08:14 r, 16.99m,0000000014Hz,0000032538c,0000000.071s, 003.2C,00002195
2020-03-08 13:18:14 r, 17.01m,0000000013Hz,0000033339c,0000000.072s, 002.9C,00002195
2020-03-08 13:28:15 r, 17.03m,0000000013Hz,0000033795c,0000000.073s, 002.5C,00002195
2020-03-08 13:38:17 r, 17.06m,0000000013Hz,0000034697c,0000000.075s, 002.5C,00002195
2020-03-08 13:48:14 r, 17.09m,0000000013Hz,0000035687c,0000000.077s, 002.2C,00002195
2020-03-08 13:58:14 r, 17.09m,0000000013Hz,0000035978c,0000000.078s, 002.2C,00002195
2020-03-08 14:08:17 r, 17.13m,0000000012Hz,0000037265c,0000000.081s, 002.2C,00002195
2020-03-08 14:18:14 r, 17.16m,0000000012Hz,0000038090c,0000000.083s, 001.9C,00002195
2020-03-08 14:28:17 r, 17.17m,0000000012Hz,0000038574c,0000000.084s, 001.9C,00002195
2020-03-08 14:38:14 r, 17.20m,0000000011Hz,0000039463c,0000000.086s, 001.9C,00002195
2020-03-08 14:48:15 r, 17.22m,0000000011Hz,0000040434c,0000000.088s, 001.9C,00002195
2020-03-08 14:58:15 r, 17.25m,0000000011Hz,0000041379c,0000000.090s, 001.9C,00002195
2020-03-08 15:08:16 r, 17.26m,0000000011Hz,0000041585c,0000000.090s, 001.6C,00002195
2020-03-08 15:18:14 r, 17.29m,0000000011Hz,0000042508c,0000000.092s, 001.6C,00002195
2020-03-08 15:28:14 r, 17.31m,0000000011Hz,0000043431c,0000000.094s, 001.6C,00002195
2020-03-08 15:38:17 r, 17.29m,0000000011Hz,0000043005c,0000000.093s, 001.6C,00002195
2020-03-08 15:48:14 r, 17.23m,0000000012Hz,0000040193c,0000000.087s, 001.6C,00002195
2020-03-08 15:58:16 r, 16.89m,0000000016Hz,0000029471c,0000000.064s, 001.2C,00002195
2020-03-08 16:08:15 r, 15.88m,0000000039Hz,0000011741c,0000000.025s, 001.2C,00002195
2020-03-08 16:18:14 r, 14.01m,0000000221Hz,0000000000c,0000000.000s, 000.9C,00002195
2020-03-08 16:28:14 r, 11.84m,0000001637Hz,0000000000c,0000000.000s, 000.9C,00002195
2020-03-08 16:38:15 r, 09.81m,0000010621Hz,0000000000c,0000000.000s, 000.9C,00002195
2020-03-08 16:48:14 r, 08.31m,0000042348Hz,0000000000c,0000000.000s, 000.6C,00002195
2020-03-08 16:58:14 r, 07.29m,0000107989Hz,0000000000c,0000000.000s, 000.9C,00002195
2020-03-08 17:08:14 r, 06.62m,0000200401Hz,0000000000c,0000000.000s, 000.9C,00002195
2020-03-08 17:18:14 r, 06.18m,0000302595Hz,0000000000c,0000000.000s, 000.9C,00002195
2020-03-08 17:28:15 r, 00.00m,0000403065Hz,0000000000c,0000000.000s, 001.2C,00002195
2020-03-08 17:38:14 r, 00.00m,0000495738Hz,0000000000c,0000000.000s, 001.2C,00002195
2020-03-08 17:48:14 r, 00.00m,0000561011Hz,0000000000c,0000000.000s, 001.6C,00002195
2020-03-08 17:58:15 r, 00.00m,0000560812Hz,0000000000c,0000000.000s, 001.9C,00002195
2020-03-08 18:08:17 r, 00.00m,0000560930Hz,0000000000c,0000000.000s, 002.2C,00002195
2020-03-08 18:18:14 r, 00.00m,0000561003Hz,0000000000c,0000000.000s, 002.5C,00002195
2020-03-08 18:28:16 r, 00.00m,0000561214Hz,0000000000c,0000000.000s, 003.5C,00002195
2020-03-08 18:38:14 r, 00.00m,0000561282Hz,0000000000c,0000000.000s, 004.8C,00002195
2020-03-08 18:48:14 r, 00.00m,0000561619Hz,0000000000c,0000000.000s, 006.1C,00002195
2020-03-08 18:58:14 r, 00.00m,0000561612Hz,0000000000c,0000000.000s, 007.0C,00002195
2020-03-08 19:08:15 r, 00.00m,0000561790Hz,0000000000c,0000000.000s, 007.7C,00002195
2020-03-08 19:18:15 r, 00.00m,0000561896Hz,0000000000c,0000000.000s, 008.7C,00002195
2020-03-08 19:28:14 r, 00.00m,0000562031Hz,0000000000c,0000000.000s, 009.3C,00002195
2020-03-08 19:38:16 r, 00.00m,0000562129Hz,0000000000c,0000000.000s, 009.9C,00002195
2020-03-08 19:48:14 r, 00.00m,0000562259Hz,0000000000c,0000000.000s, 010.9C,00002195
2020-03-08 19:58:14 r, 00.00m,0000562447Hz,0000000000c,0000000.000s, 011.6C,00002195
2020-03-08 20:08:14 r, 00.00m,0000562533Hz,0000000000c,0000000.000s, 012.2C,00002195
2020-03-08 20:18:14 r, 00.00m,0000562675Hz,0000000000c,0000000.000s, 013.2C,00002195
2020-03-08 20:28:14 r, 00.00m,0000562734Hz,0000000000c,0000000.000s, 014.1C,00002195
2020-03-08 20:38:14 r, 00.00m,0000562941Hz,0000000000c,0000000.000s, 014.8C,00002195
2020-03-08 20:48:14 r, 00.00m,0000563054Hz,0000000000c,0000000.000s, 015.7C,00002195
2020-03-08 20:58:14 r, 00.00m,0000563089Hz,0000000000c,0000000.000s, 016.4C,00002195
2020-03-08 21:08:15 r, 00.00m,0000563141Hz,0000000000c,0000000.000s, 016.7C,00002195
2020-03-08 21:18:14 r, 00.00m,0000563134Hz,0000000000c,0000000.000s, 016.7C,00002195
2020-03-08 21:28:17 r, 00.00m,0000563172Hz,0000000000c,0000000.000s, 016.7C,00002195
2020-03-08 21:38:15 r, 00.00m,0000563212Hz,0000000000c,0000000.000s, 017.0C,00002195
2020-03-08 21:48:14 r, 00.00m,0000563247Hz,0000000000c,0000000.000s, 017.7C,00002195
2020-03-08 21:58:14 r, 00.00m,0000563301Hz,0000000000c,0000000.000s, 017.7C,00002195
2020-03-08 22:08:16 r, 00.00m,0000563363Hz,0000000000c,0000000.000s, 017.7C,00002195
2020-03-08 22:18:14 r, 00.00m,0000563359Hz,0000000000c,0000000.000s, 017.7C,00002195
2020-03-08 22:28:14 r, 00.00m,0000563407Hz,0000000000c,0000000.000s, 017.7C,00002195
2020-03-08 22:38:14 r, 00.00m,0000563435Hz,0000000000c,0000000.000s, 018.3C,00002195
2020-03-08 22:48:14 r, 00.00m,0000563523Hz,0000000000c,0000000.000s, 018.3C,00002195
2020-03-08 22:58:16 r, 00.00m,0000563590Hz,0000000000c,0000000.000s, 018.6C,00002195
2020-03-08 23:08:14 r, 00.00m,0000563478Hz,0000000000c,0000000.000s, 018.6C,00002195
2020-03-08 23:18:14 r, 00.00m,0000563478Hz,0000000000c,0000000.000s, 019.0C,00002195
2020-03-08 23:28:17 r, 00.00m,0000563406Hz,0000000000c,0000000.000s, 018.3C,00002195
2020-03-08 23:38:15 r, 00.00m,0000563356Hz,0000000000c,0000000.000s, 017.7C,00002195
2020-03-08 23:48:14 r, 00.00m,0000563226Hz,0000000000c,0000000.000s, 018.0C,00002195
2020-03-08 23:58:17 r, 00.00m,0000563364Hz,0000000000c,0000000.000s, 018.0C,00002195
